EW5004 Weather Reports


time (UTC)temp
C
wind
direction
speed
KPH
gust
KPH
rain 1hr
cm
rain 24hr
cm
rain mn
cm
humidity
%
barometer
mb
20260504081519 10 319 4.8 24.1 0.00 0.00 0.00 58 1008.3
20260504050125 8 236 3.2 8.0 0.00 0.00 0.00 59 1010.5
20260504044552 9 257 1.6 6.4 0.00 0.00 0.00 59 1010.5
20260504043057 9 279 4.8 11.3 0.00 0.00 0.00 58 1010.5
20260504041548 9 273 1.6 14.5 0.00 0.00 0.00 57 1010.8
20260504040044 9 327 6.4 19.3 0.00 0.00 0.00 58 1011.0
20260504034547 10 284 1.6 9.7 0.00 0.00 0.00 57 1011.0
20260504033034 9 268 3.2 8.0 0.00 0.00 0.00 58 1010.9
20260504031530 10 245 3.2 11.3 0.00 0.00 0.00 58 1011.0
20260504030036 10 252 3.2 8.0 0.00 0.00 0.00 57 1011.1
20260504024520 10 253 4.8 9.7 0.00 0.00 0.00 55 1011.1
20260504023016 11 270 3.2 11.3 0.00 0.00 0.00 54 1011.2
20260504021512 11 260 3.2 8.0 0.00 0.00 0.00 53 1011.2
20260504020008 12 270 3.2 12.9 0.00 0.00 0.00 51 1011.2
20260504014505 12 254 3.2 11.3 0.00 0.00 0.00 50 1011.1
20260504013112 12 248 3.2 9.7 0.00 0.00 0.00 50 1011.0
20260504011557 12 275 3.2 8.0 0.00 0.00 0.00 49 1010.9
20260504010057 13 271 3.2 9.7 0.00 0.00 0.00 48 1010.9
20260504004546 13 294 3.2 12.9 0.00 0.00 0.00 46 1010.9
20260504003046 13 290 4.8 11.3 0.00 0.00 0.00 44 1010.8
20260504001547 13 321 9.7 24.1 0.00 0.00 0.00 43 1010.8
20260504000034 14 315 8.0 16.1 0.00 0.00 0.00 43 1010.8
20260503234532 15 270 4.8 16.1 0.00 0.00 0.00 42 1010.8
20260503233024 15 291 6.4 16.1 0.00 0.00 0.00 42 1010.9
20260503231521 15 348 11.3 24.1 0.00 0.00 0.00 41 1010.9
20260503230016 15 313 8.0 24.1 0.00 0.00 0.00 42 1010.9
20260503224511 15 304 9.7 19.3 0.00 0.00 0.00 41 1011.0
20260503223006 15 306 8.0 17.7 0.00 0.00 0.00 42 1011.0
20260503221502 15 294 8.0 16.1 0.00 0.00 0.00 44 1011.1
20260503220105 15 329 8.0 19.3 0.00 0.00 0.00 44 1011.2
20260503214557 15 302 6.4 17.7 0.00 0.00 0.00 43 1011.2
20260503213120 15 338 9.7 22.5 0.00 0.00 0.00 43 1011.0
20260503211612 15 319 9.7 22.5 0.00 0.00 0.00 43 1011.1
20260503210041 15 311 9.7 29.0 0.00 0.00 0.00 41 1010.9
20260503204552 15 355 6.4 20.9 0.00 0.00 0.00 40 1011.0
20260503203035 15 340 12.9 25.7 0.00 0.00 0.00 36 1011.3
20260503201527 15 315 9.7 32.2 0.00 0.00 0.00 35 1011.5
20260503200023 15 38 11.3 33.8 0.00 0.00 0.00 34 1011.7
20260503194523 16 299 12.9 29.0 0.00 0.00 0.00 34 1011.8
20260503193014 15 16 12.9 30.6 0.00 0.00 0.00 35 1012.1
20260503191510 16 11 11.3 29.0 0.00 0.00 0.00 35 1012.4
20260503190006 16 343 9.7 38.6 0.00 0.00 0.00 36 1012.5
20260503184501 15 313 14.5 29.0 0.00 0.00 0.00 35 1012.6
20260503183106 15 324 11.3 27.4 0.00 0.00 0.00 36 1012.7
20260503181555 16 360 9.7 27.4 0.00 0.00 0.00 37 1013.0
20260503180049 15 342 11.3 30.6 0.00 0.00 0.00 36 1013.0
20260503174558 14 22 11.3 22.5 0.00 0.00 0.00 37 1013.2
20260503173039 14 332 12.9 27.4 0.00 0.00 0.00 37 1013.3
20260503171536 14 309 6.4 30.6 0.00 0.00 0.00 39 1013.5